This demonstration page uses our WeatherBlox Daily Observations layout. Learn more.

Left ArrowRight Arrow

Hourly Observations for June 23, 2017

Temp ( °F °C ) Dew Point ( °F °C ) Humidity (%) Winds ( mph kmh ) Pressure ( in mb ) Visibility ( mi km ) Precip ( " mm )
12:07 am 00:07 Cloudy 72 22 68 20 88 88 S 8 13 29.80 1009 10 16 N/A
12:27 am 00:27 Cloudy 72 22 68 20 88 88 S 10 17 29.80 1009 10 16 N/A
12:47 am 00:47 Cloudy 72 22 68 20 88 88 S 9 15 29.80 1009 10 16 N/A
1:07 am 01:07 Cloudy 72 22 68 20 88 88 S 9 15 29.80 1009 10 16 N/A
1:27 am 01:27 Cloudy 72 22 68 20 88 88 S 10 17 29.80 1009 10 16 N/A
1:46 am 01:46 Cloudy 72 22 70 21 94 94 SSW 9 15 29.77 1008 10 16 N/A
2:07 am 02:07 Cloudy 72 22 70 21 94 94 S 8 13 29.77 1008 10 16 N/A
2:27 am 02:27 Cloudy 72 22 70 21 94 94 SSW 7 11 29.77 1008 7 11 N/A
2:47 am 02:47 Cloudy 70 21 70 21 100 100 S 8 13 29.77 1008 5 8 N/A
3:07 am 03:07 Cloudy 72 22 70 21 94 94 SSW 7 11 29.74 1007 5 8 N/A
3:27 am 03:27 Cloudy 72 22 70 21 94 94 SSW 6 9 29.74 1007 10 16 N/A
3:47 am 03:47 Cloudy 72 22 70 21 94 94 SSW 7 11 29.74 1007 10 16 N/A
4:07 am 04:07 Cloudy 73 23 70 21 89 89 SSW 9 15 29.74 1007 10 16 N/A
4:27 am 04:27 Cloudy 73 23 70 21 89 89 SSW 9 15 29.71 1006 10 16 N/A
4:47 am 04:47 Cloudy 73 23 72 22 94 94 SSW 12 19 29.71 1006 10 16 N/A
5:07 am 05:07 Cloudy 73 23 72 22 94 94 SSW 8 13 29.71 1006 10 16 N/A
5:26 am 05:26 Cloudy 73 23 72 22 94 94 SW 12 19 29.71 1006 10 16 N/A
5:47 am 05:47 Cloudy 73 23 72 22 94 94 SSW 13 20 29.71 1006 10 16 N/A
6:07 am 06:07 Cloudy 73 23 72 22 94 94 SSW 12 19 29.71 1006 10 16 N/A
6:26 am 06:26 Cloudy 75 24 72 22 89 89 SW 13 20 29.68 1005 10 16 N/A
6:47 am 06:47 Cloudy 75 24 72 22 89 89 SW 12 19 29.68 1005 10 16 N/A
7:07 am 07:07 Cloudy 75 24 72 22 89 89 SW 13 20 29.68 1005 10 16 N/A
7:26 am 07:26 Cloudy 75 24 72 22 89 89 SW 10 17 29.68 1005 10 16 N/A
7:47 am 07:47 Cloudy 75 24 72 22 89 89 SW 10 17 29.68 1005 10 16 N/A
8:07 am 08:07 Cloudy 75 24 72 22 89 89 SW 10 17 29.68 1005 10 16 N/A
8:26 am 08:26 Cloudy 75 24 72 22 89 89 WSW 9 15 29.71 1006 4 6 N/A
8:47 am 08:47 Cloudy 73 23 72 22 94 94 WSW 10 17 29.68 1005 1 1 N/A
9:07 am 09:07 Cloudy 75 24 72 22 89 89 SW 12 19 29.68 1005 7 11 N/A
9:27 am 09:27 Cloudy 73 23 72 22 94 94 WSW 10 17 29.68 1005 2 2 N/A
9:46 am 09:46 Cloudy 75 24 73 23 94 94 SW 7 11 29.68 1005 10 16 N/A
10:07 am 10:07 Cloudy 75 24 73 23 94 94 WSW 9 15 29.68 1005 10 16 N/A
10:26 am 10:26 Cloudy 73 23 73 23 100 100 SSW 13 20 29.68 1005 1 1 N/A
10:47 am 10:47 Cloudy 73 23 72 22 94 94 S 8 13 29.68 1005 1 1 N/A
11:06 am 11:06 Cloudy 72 22 72 22 100 100 SW 12 19 29.68 1005 1 1 N/A
11:27 am 11:27 Cloudy 72 22 72 22 100 100 WSW 16 26 29.68 1005 3 5 N/A
11:47 am 11:47 Cloudy 72 22 72 22 100 100 SW 9 15 29.68 1005 3 5 N/A
12:06 pm 12:06 Cloudy 70 21 68 20 94 94 NW 15 24 29.71 1006 4 6 N/A
12:27 pm 12:27 Cloudy 66 19 66 19 100 100 N 8 13 29.71 1006 2 3 N/A
12:47 pm 12:47 Cloudy 66 19 66 19 100 100 N N/A 29.71 1006 5 8 N/A
1:07 pm 13:07 Cloudy 66 19 66 19 100 100 S 6 9 29.71 1006 1 1 N/A
1:27 pm 13:27 Cloudy 66 19 66 19 100 100 SSW 3 6 29.68 1005 2 3 N/A
1:46 pm 13:46 Cloudy 68 20 66 19 94 94 S 9 15 29.68 1005 3 5 N/A
2:07 pm 14:07 Cloudy 68 20 66 19 94 94 S 8 13 29.71 1006 7 11 N/A
2:26 pm 14:26 Cloudy 68 20 66 19 94 94 SSW 9 15 29.71 1006 4 6 N/A
2:47 pm 14:47 Cloudy 68 20 68 20 100 100 WSW 5 7 29.71 1006 5 8 N/A
3:07 pm 15:07 Cloudy 68 20 68 20 100 100 WSW 8 13 29.71 1006 5 8 N/A
3:26 pm 15:26 Mostly Cloudy 68 20 68 20 100 100 WSW 6 9 29.71 1006 10 16 N/A
3:47 pm 15:47 Sunny 68 20 66 19 94 94 W 3 6 29.68 1005 10 16 N/A
4:07 pm 16:07 Partly Cloudy 70 21 68 20 94 94 W 3 6 29.68 1005 10 16 N/A
4:27 pm 16:27 Mostly Cloudy 70 21 68 20 94 94 W 3 6 29.68 1005 10 16 N/A
4:47 pm 16:47 Cloudy 72 22 68 20 88 88 W 6 9 29.68 1005 10 16 N/A
5:06 pm 17:06 Cloudy 70 21 68 20 94 94 W 5 7 29.68 1005 3 5 N/A
5:27 pm 17:27 Cloudy 70 21 68 20 94 94 NW 3 6 29.68 1005 10 16 N/A
5:47 pm 17:47 Cloudy 70 21 68 20 94 94 NW 12 19 29.68 1005 10 16 N/A
6:06 pm 18:06 Cloudy 70 21 68 20 94 94 NNW 12 19 29.68 1005 10 16 N/A
6:27 pm 18:27 Cloudy 70 21 66 19 88 88 N 10 17 29.68 1005 10 16 N/A
6:47 pm 18:47 Mostly Cloudy 70 21 66 19 88 88 N 13 20 29.68 1005 10 16 N/A
7:07 pm 19:07 Partly Cloudy 72 22 66 19 83 83 N 15 24 29.68 1005 10 16 N/A
7:27 pm 19:27 Partly Cloudy 72 22 66 19 83 83 NNW 15 24 29.68 1005 10 16 N/A
7:46 pm 19:46 Sunny 72 22 66 19 83 83 NNW 10 17 29.68 1005 10 16 N/A
8:07 pm 20:07 Sunny 72 22 64 18 78 78 N 10 17 29.71 1006 10 16 N/A
8:27 pm 20:27 Partly Cloudy 72 22 63 17 73 73 NNW 13 20 29.74 1007 10 16 N/A
8:46 pm 20:46 Sunny 70 21 63 17 78 78 N 7 11 29.74 1007 10 16 N/A
9:07 pm 21:07 Sunny 68 20 61 16 78 78 NNW 9 15 29.74 1007 10 16 N/A
9:27 pm 21:27 Clear 66 19 59 15 78 78 NNW 6 9 29.77 1008 10 16 N/A
9:47 pm 21:47 Clear 66 19 59 15 78 78 WNW 6 9 29.77 1008 10 16 N/A
10:07 pm 22:07 Clear 66 19 61 16 83 83 WNW 6 9 29.77 1008 10 16 N/A
10:26 pm 22:26 Clear 64 18 59 15 83 83 WNW 5 7 29.83 1010 10 16 N/A
10:47 pm 22:47 Clear 64 18 61 16 88 88 W 5 7 29.83 1010 10 16 N/A
11:07 pm 23:07 Clear 64 18 61 16 88 88 WSW 3 6 29.83 1010 10 16 N/A
11:26 pm 23:26 Clear 64 18 61 16 88 88 WSW 5 7 29.83 1010 10 16 N/A
11:47 pm 23:47 Clear 64 18 61 16 88 88 WSW 5 7 29.85 1011 10 16 N/A

Powered by AerisWeather